Location: ???????
(37.9763°N, 23.8889°E)
Time: 07:57:11
(UTC+00:00)

SWAS - Pass Details

Date: 15 June 2024
Orbit: 558 x 571 km, 69.9° (Epoch: 22 July)

Event Time Altitude Azimuth Distance (km) Brightness Sun altitude
Exits shadow 02:13:37 - 209° (SSW) 1,922 6.5 -8.6°
Reaches altitude 10° 02:13:47 10° 209° (SSW) 1,851 6.4 -8.5°
Maximum altitude 02:17:55 73° 294° (WNW) 595 4.4 -7.9°
Drops below altitude 10° 02:22:06 10° 20° (NNE) 1,874 8.0 -7.2°
Sets 02:24:21 0° 22° (NNE) 2,778 9.1 -6.9°
